TimeEST,TemperatureF,Dew PointF,Humidity,Sea Level PressureIn,VisibilityMPH,Wind Direction,Wind SpeedMPH,Gust SpeedMPH,PrecipitationIn,Events,Conditions,WindDirDegrees,DateUTC
12:38 AM,73.4,71.6,94,29.97,9.0,SSE,3.5,-,N/A,,Scattered Clouds,160,2013-02-24 05:38:00
12:53 AM,73.9,72.0,93,29.98,9.0,South,3.5,-,N/A,,Mostly Cloudy,180,2013-02-24 05:53:00
1:53 AM,73.0,72.0,96,29.96,8.0,South,3.5,-,N/A,,Scattered Clouds,180,2013-02-24 06:53:00
2:53 AM,73.0,72.0,96,29.95,7.0,SW,3.5,-,N/A,,Scattered Clouds,220,2013-02-24 07:53:00
3:53 AM,72.0,71.1,97,29.94,6.0,Calm,Calm,-,N/A,,Scattered Clouds,0,2013-02-24 08:53:00
4:53 AM,72.0,71.1,97,29.94,5.0,Calm,Calm,-,N/A,,Partly Cloudy,0,2013-02-24 09:53:00
5:53 AM,72.0,71.1,97,29.95,5.0,Calm,Calm,-,N/A,,Partly Cloudy,0,2013-02-24 10:53:00
6:42 AM,71.6,71.6,100,29.96,1.8,Calm,Calm,-,N/A,,Partly Cloudy,0,2013-02-24 11:42:00
6:53 AM,71.1,71.1,100,29.96,3.0,Calm,Calm,-,N/A,,Scattered Clouds,0,2013-02-24 11:53:00
7:53 AM,73.0,73.0,100,29.97,6.0,SSW,4.6,-,N/A,,Scattered Clouds,210,2013-02-24 12:53:00
8:36 AM,75.2,73.4,94,29.98,8.0,SW,6.9,-,N/A,,Partly Cloudy,220,2013-02-24 13:36:00
8:53 AM,77.0,73.0,88,29.99,9.0,SW,5.8,-,N/A,,Scattered Clouds,230,2013-02-24 13:53:00
9:53 AM,79.0,71.1,77,30.00,10.0,West,3.5,-,N/A,,Scattered Clouds,260,2013-02-24 14:53:00
10:53 AM,82.9,70.0,65,29.99,10.0,SSW,4.6,-,N/A,,Scattered Clouds,200,2013-02-24 15:53:00
11:53 AM,82.0,71.1,69,29.98,10.0,SE,5.8,-,N/A,,Mostly Cloudy,140,2013-02-24 16:53:00
12:53 PM,84.0,71.1,65,29.95,10.0,SE,13.8,-,N/A,,Scattered Clouds,140,2013-02-24 17:53:00
1:53 PM,84.0,70.0,63,29.92,10.0,SE,13.8,-,N/A,,Scattered Clouds,140,2013-02-24 18:53:00
2:53 PM,82.9,70.0,65,29.91,10.0,SE,15.0,-,N/A,,Scattered Clouds,140,2013-02-24 19:53:00
3:53 PM,82.9,70.0,65,29.90,10.0,SSE,11.5,-,N/A,,Partly Cloudy,150,2013-02-24 20:53:00
4:53 PM,82.0,69.1,65,29.91,10.0,South,8.1,-,N/A,,Scattered Clouds,170,2013-02-24 21:53:00
5:53 PM,80.1,69.1,69,29.92,10.0,SSE,10.4,-,N/A,,Scattered Clouds,160,2013-02-24 22:53:00
6:53 PM,78.1,69.1,74,29.92,10.0,SSE,6.9,-,N/A,,Partly Cloudy,160,2013-02-24 23:53:00
7:53 PM,77.0,70.0,79,29.94,10.0,South,4.6,-,N/A,,Clear,170,2013-02-25 00:53:00
8:53 PM,75.9,69.1,79,29.94,10.0,SSW,4.6,-,N/A,,Clear,200,2013-02-25 01:53:00
9:53 PM,75.9,70.0,82,29.95,10.0,Calm,Calm,-,N/A,,Partly Cloudy,0,2013-02-25 02:53:00
10:53 PM,75.0,69.1,82,29.94,10.0,Calm,Calm,-,N/A,,Mostly Cloudy,0,2013-02-25 03:53:00
11:53 PM,75.9,69.1,79,29.92,10.0,Calm,Calm,-,N/A,,Partly Cloudy,0,2013-02-25 04:53:00